User: anonymous   Login
Location: Caltech
(34.1382°N, 118.1253°W)
Time: 18:50:04
(UTC-07:00)
Language:

Cosmos-2242 - Orbit

View from above orbital plane
View from above orbital plane
View from above satellite
View from above satellite

Ground track
Ground track

The orbit data is extracted from the following two-line orbital elements,

1 22626U 93024A   16208.84248282  .00000244  00000-0  24086-4 0  9995
2 22626  82.5232 348.4838 0020514 118.7625 241.5656 14.87490449257780
Epoch (UTC): 26 July 2016 20:13:10
Eccentricity: 0.0020514
inclination: 82.5232°
perigee height: 591 km
apogee height: 620 km
right ascension of ascending node: 348.4838°
argument of perigee: 118.7625°
revolutions per day: 14.87490449
mean anomaly at epoch: 241.5656°
orbit number at epoch: 25778

The dashed part of the orbit path shows where the satellite is in the earth's shadow,  

DLR